Time,TemperatureF,DewpointF,PressureIn,WindDirection,WindDirectionDegrees,WindSpeedMPH,WindSpeedGustMPH,Humidity,HourlyPrecipIn,Conditions,Clouds,dailyrainin,SoftwareType,DateUTC
2013-01-14 00:00:00,30.8,30.4,29.99,West,263,7.5,14.2,98,0.00,,,0.00,WUHU216PEETBRO,2013-01-14 05:00:00,
2013-01-14 00:02:00,30.8,30.4,29.99,WNW,293,7.6,14.2,99,0.00,,,0.00,WUHU216PEETBRO,2013-01-14 05:02:00,
2013-01-14 00:03:00,30.7,30.2,29.99,NW,313,0.0,14.2,98,0.00,,,0.00,WUHU216PEETBRO,2013-01-14 05:03:00,
2013-01-14 00:08:00,30.8,30.5,30.00,SW,232,0.0,14.2,99,0.00,,,0.00,WUHU216PEETBRO,2013-01-14 05:08:00,
2013-01-14 00:13:00,30.2,29.2,30.00,North,359,5.8,12.7,96,0.00,,,0.00,WUHU216PEETBRO,2013-01-14 05:13:00,
2013-01-14 00:18:00,29.8,28.7,30.01,WSW,249,4.5,14.4,96,0.00,,,0.00,WUHU216PEETBRO,2013-01-14 05:18:00,
2013-01-14 00:23:00,29.4,28.1,30.01,NW,313,0.0,14.9,95,0.00,,,0.00,WUHU216PEETBRO,2013-01-14 05:23:00,
2013-01-14 00:28:00,29.1,27.9,30.01,NE,52,6.6,14.9,95,0.00,,,0.00,WUHU216PEETBRO,2013-01-14 05:28:00,
2013-01-14 00:33:00,29.2,28.3,30.01,WSW,258,3.1,14.9,97,0.00,,,0.00,WUHU216PEETBRO,2013-01-14 05:33:00,
2013-01-14 00:38:00,28.9,27.8,30.01,NNW,328,9.2,13.5,96,0.00,,,0.00,WUHU216PEETBRO,2013-01-14 05:38:00,
2013-01-14 00:43:00,28.9,28.3,30.02,West,279,3.4,13.5,98,0.00,,,0.00,WUHU216PEETBRO,2013-01-14 05:43:00,
2013-01-14 00:48:00,29.0,28.3,30.02,West,259,7.4,10.7,97,0.00,,,0.00,WUHU216PEETBRO,2013-01-14 05:48:00,
2013-01-14 00:53:00,28.9,28.1,30.02,West,272,0.0,13.9,97,0.00,,,0.00,WUHU216PEETBRO,2013-01-14 05:53:00,
2013-01-14 00:58:00,28.8,28.3,30.02,WNW,282,0.0,13.9,98,0.00,,,0.00,WUHU216PEETBRO,2013-01-14 05:58:00,
2013-01-14 01:03:00,28.8,28.3,30.02,WNW,295,3.0,9.0,98,0.00,,,0.00,WUHU216PEETBRO,2013-01-14 06:03:00,
2013-01-14 01:08:00,28.4,27.5,30.03,NNW,334,11.2,12.6,97,0.00,,,0.00,WUHU216PEETBRO,2013-01-14 06:08:00,
2013-01-14 01:13:00,28.4,27.5,30.03,West,259,0.0,12.6,97,0.00,,,0.00,WUHU216PEETBRO,2013-01-14 06:13:00,
2013-01-14 01:18:00,28.0,27.0,30.03,West,280,8.1,12.8,96,0.00,,,0.00,WUHU216PEETBRO,2013-01-14 06:18:00,
2013-01-14 01:23:00,28.1,27.4,30.04,West,271,7.0,12.8,97,0.00,,,0.00,WUHU216PEETBRO,2013-01-14 06:23:00,
2013-01-14 01:28:00,28.0,27.2,30.04,NNW,344,4.7,11.3,97,0.00,,,0.00,WUHU216PEETBRO,2013-01-14 06:28:00,
2013-01-14 01:33:00,27.9,27.0,30.04,East,87,4.3,11.3,97,0.00,,,0.00,WUHU216PEETBRO,2013-01-14 06:33:00,
2013-01-14 01:38:00,27.8,26.8,30.05,NNE,14,4.5,13.3,96,0.00,,,0.00,WUHU216PEETBRO,2013-01-14 06:38:00,
2013-01-14 01:43:00,27.4,26.3,30.05,NW,311,7.6,14.4,96,0.00,,,0.00,WUHU216PEETBRO,2013-01-14 06:43:00,
2013-01-14 01:48:00,27.2,25.7,30.05,WNW,295,7.6,14.4,94,0.00,,,0.00,WUHU216PEETBRO,2013-01-14 06:48:00,
2013-01-14 01:53:00,27.3,26.0,30.06,North,359,2.2,15.0,95,0.00,,,0.00,WUHU216PEETBRO,2013-01-14 06:53:00,
2013-01-14 01:58:00,27.2,26.2,30.06,NW,323,3.4,15.0,96,0.00,,,0.00,WUHU216PEETBRO,2013-01-14 06:58:00,
2013-01-14 02:03:00,27.1,26.1,30.06,WNW,286,5.6,13.5,96,0.00,,,0.00,WUHU216PEETBRO,2013-01-14 07:03:00,
2013-01-14 02:08:00,26.6,25.0,30.07,NW,310,7.0,14.1,94,0.00,,,0.00,WUHU216PEETBRO,2013-01-14 07:08:00,
2013-01-14 02:13:00,26.7,25.2,30.07,West,263,6.8,18.7,94,0.00,,,0.00,WUHU216PEETBRO,2013-01-14 07:13:00,
2013-01-14 02:18:00,26.7,25.1,30.08,NNW,345,7.5,18.7,94,0.00,,,0.00,WUHU216PEETBRO,2013-01-14 07:18:00,
2013-01-14 02:23:00,26.5,25.2,30.08,WNW,290,9.4,17.6,95,0.00,,,0.00,WUHU216PEETBRO,2013-01-14 07:23:00,
2013-01-14 02:28:00,26.8,25.6,30.09,West,276,2.5,17.6,96,0.00,,,0.00,WUHU216PEETBRO,2013-01-14 07:28:00,
2013-01-14 02:33:00,26.7,25.6,30.09,WNW,282,5.5,11.2,96,0.00,,,0.00,WUHU216PEETBRO,2013-01-14 07:33:00,
2013-01-14 02:38:00,26.6,25.5,30.09,NW,309,7.5,11.2,96,0.00,,,0.00,WUHU216PEETBRO,2013-01-14 07:38:00,
2013-01-14 02:43:00,26.3,24.6,30.09,NNW,327,6.3,14.1,94,0.00,,,0.00,WUHU216PEETBRO,2013-01-14 07:43:00,
2013-01-14 02:48:00,26.2,24.6,30.10,WNW,289,6.5,14.1,94,0.00,,,0.00,WUHU216PEETBRO,2013-01-14 07:48:00,
2013-01-14 02:53:00,26.4,24.8,30.11,WSW,252,5.8,14.9,94,0.00,,,0.00,WUHU216PEETBRO,2013-01-14 07:53:00,
2013-01-14 02:58:00,25.9,24.1,30.11,NW,306,11.7,17.5,93,0.00,,,0.00,WUHU216PEETBRO,2013-01-14 07:58:00,
2013-01-14 03:03:00,25.7,24.0,30.11,WNW,287,7.7,17.5,93,0.00,,,0.00,WUHU216PEETBRO,2013-01-14 08:03:00,
2013-01-14 03:08:00,25.8,24.3,30.11,WNW,293,5.9,15.0,94,0.00,,,0.00,WUHU216PEETBRO,2013-01-14 08:08:00,
2013-01-14 03:13:00,25.9,24.5,30.11,West,262,3.4,11.4,95,0.00,,,0.00,WUHU216PEETBRO,2013-01-14 08:13:00,
2013-01-14 03:18:00,25.8,24.4,30.12,West,269,5.2,13.5,94,0.00,,,0.00,WUHU216PEETBRO,2013-01-14 08:18:00,
2013-01-14 03:23:00,25.7,24.4,30.12,WNW,287,5.0,13.5,95,0.00,,,0.00,WUHU216PEETBRO,2013-01-14 08:23:00,
2013-01-14 03:28:00,25.8,24.7,30.12,West,266,4.5,16.2,96,0.00,,,0.00,WUHU216PEETBRO,2013-01-14 08:28:00,
2013-01-14 03:33:00,25.7,24.3,30.13,North,9,5.2,16.2,95,0.00,,,0.00,WUHU216PEETBRO,2013-01-14 08:33:00,
2013-01-14 03:38:00,25.9,24.6,30.13,WSW,239,2.0,13.7,95,0.00,,,0.00,WUHU216PEETBRO,2013-01-14 08:38:00,
2013-01-14 03:43:00,25.7,24.2,30.14,West,262,4.3,11.1,94,0.00,,,0.00,WUHU216PEETBRO,2013-01-14 08:43:00,
2013-01-14 03:48:00,25.6,24.1,30.14,WNW,283,6.6,12.1,94,0.00,,,0.00,WUHU216PEETBRO,2013-01-14 08:48:00,
2013-01-14 03:53:00,25.8,24.3,30.14,West,271,3.2,12.1,94,0.00,,,0.00,WUHU216PEETBRO,2013-01-14 08:53:00,
2013-01-14 03:58:00,25.8,24.3,30.15,NW,309,5.7,10.3,94,0.00,,,0.00,WUHU216PEETBRO,2013-01-14 08:58:00,
2013-01-14 04:03:00,25.5,24.0,30.15,WNW,286,5.2,10.3,94,0.00,,,0.00,WUHU216PEETBRO,2013-01-14 09:03:00,
2013-01-14 04:08:00,25.8,24.4,30.16,WNW,286,5.0,11.4,95,0.00,,,0.00,WUHU216PEETBRO,2013-01-14 09:08:00,
2013-01-14 04:13:00,25.4,24.1,30.16,NW,314,7.7,17.7,95,0.00,,,0.00,WUHU216PEETBRO,2013-01-14 09:13:00,
2013-01-14 04:18:00,25.6,24.2,30.16,West,278,6.6,17.7,95,0.00,,,0.00,WUHU216PEETBRO,2013-01-14 09:18:00,
2013-01-14 04:23:00,25.2,23.8,30.16,WNW,286,7.7,12.6,95,0.00,,,0.00,WUHU216PEETBRO,2013-01-14 09:23:00,
2013-01-14 04:28:00,25.3,23.9,30.16,North,4,4.8,12.6,95,0.00,,,0.00,WUHU216PEETBRO,2013-01-14 09:28:00,
2013-01-14 04:33:00,25.4,24.2,30.16,NW,307,6.0,11.1,95,0.00,,,0.00,WUHU216PEETBRO,2013-01-14 09:33:00,
2013-01-14 04:38:00,25.4,24.2,30.16,West,269,6.8,10.4,95,0.00,,,0.00,WUHU216PEETBRO,2013-01-14 09:38:00,
2013-01-14 04:43:00,25.4,24.4,30.17,WNW,303,0.0,10.4,96,0.00,,,0.00,WUHU216PEETBRO,2013-01-14 09:43:00,
2013-01-14 04:48:00,25.3,24.3,30.17,ENE,69,4.7,9.4,96,0.00,,,0.00,WUHU216PEETBRO,2013-01-14 09:48:00,
2013-01-14 04:53:00,25.3,24.3,30.17,SW,234,3.5,9.9,96,0.00,,,0.00,WUHU216PEETBRO,2013-01-14 09:53:00,
2013-01-14 04:58:00,25.4,24.5,30.16,WSW,248,0.0,9.9,96,0.00,,,0.00,WUHU216PEETBRO,2013-01-14 09:58:00,
2013-01-14 05:03:00,25.2,24.2,30.17,WSW,255,6.6,9.1,96,0.00,,,0.00,WUHU216PEETBRO,2013-01-14 10:03:00,
2013-01-14 05:08:00,25.2,24.2,30.17,West,263,0.0,11.6,96,0.00,,,0.00,WUHU216PEETBRO,2013-01-14 10:08:00,
2013-01-14 05:13:00,25.1,24.0,30.17,NW,317,4.5,11.6,96,0.00,,,0.00,WUHU216PEETBRO,2013-01-14 10:13:00,
2013-01-14 05:18:00,24.8,23.3,30.18,West,271,4.4,13.9,94,0.00,,,0.00,WUHU216PEETBRO,2013-01-14 10:18:00,
2013-01-14 05:23:00,24.7,23.1,30.18,West,280,5.6,16.6,94,0.00,,,0.00,WUHU216PEETBRO,2013-01-14 10:23:00,
2013-01-14 05:28:00,24.4,22.5,30.18,NE,49,6.2,16.6,93,0.00,,,0.00,WUHU216PEETBRO,2013-01-14 10:28:00,
2013-01-14 05:33:00,24.3,22.4,30.19,WNW,300,11.1,16.2,92,0.00,,,0.00,WUHU216PEETBRO,2013-01-14 10:33:00,
2013-01-14 05:38:00,24.3,22.5,30.19,WNW,285,9.0,16.2,93,0.00,,,0.00,WUHU216PEETBRO,2013-01-14 10:38:00,
2013-01-14 05:43:00,24.1,22.2,30.19,WNW,289,6.9,14.7,92,0.00,,,0.00,WUHU216PEETBRO,2013-01-14 10:43:00,
2013-01-14 05:48:00,24.2,22.5,30.20,North,351,2.9,14.7,93,0.00,,,0.00,WUHU216PEETBRO,2013-01-14 10:48:00,
2013-01-14 05:53:00,24.2,22.6,30.20,West,263,11.4,12.1,94,0.00,,,0.00,WUHU216PEETBRO,2013-01-14 10:53:00,
2013-01-14 05:58:00,24.3,22.8,30.20,West,272,6.5,14.7,94,0.00,,,0.00,WUHU216PEETBRO,2013-01-14 10:58:00,
2013-01-14 06:03:00,24.3,22.9,30.21,WNW,293,8.4,14.7,95,0.00,,,0.00,WUHU216PEETBRO,2013-01-14 11:03:00,
2013-01-14 06:08:00,24.3,22.9,30.21,NW,306,4.2,11.1,94,0.00,,,0.00,WUHU216PEETBRO,2013-01-14 11:08:00,
2013-01-14 06:13:00,24.4,23.0,30.22,WNW,296,6.6,15.8,95,0.00,,,0.00,WUHU216PEETBRO,2013-01-14 11:13:00,
2013-01-14 06:18:00,24.3,22.9,30.22,West,265,6.0,15.8,94,0.00,,,0.00,WUHU216PEETBRO,2013-01-14 11:18:00,
2013-01-14 06:23:00,24.3,23.0,30.22,NW,326,3.2,13.0,95,0.00,,,0.00,WUHU216PEETBRO,2013-01-14 11:23:00,
2013-01-14 06:28:00,24.4,23.2,30.23,West,279,6.1,10.7,95,0.00,,,0.00,WUHU216PEETBRO,2013-01-14 11:28:00,
2013-01-14 06:33:00,24.2,22.9,30.23,WNW,282,5.9,12.9,95,0.00,,,0.00,WUHU216PEETBRO,2013-01-14 11:33:00,
2013-01-14 06:38:00,24.0,22.6,30.23,NW,309,2.2,12.9,95,0.00,,,0.00,WUHU216PEETBRO,2013-01-14 11:38:00,
2013-01-14 06:43:00,24.0,22.7,30.24,North,359,3.5,12.6,95,0.00,,,0.00,WUHU216PEETBRO,2013-01-14 11:43:00,
2013-01-14 06:48:00,23.7,22.3,30.24,North,359,5.8,13.5,95,0.00,,,0.00,WUHU216PEETBRO,2013-01-14 11:48:00,
2013-01-14 06:53:00,23.7,22.4,30.25,WSW,248,5.4,14.2,95,0.00,,,0.00,WUHU216PEETBRO,2013-01-14 11:53:00,
2013-01-14 06:58:00,23.4,21.8,30.25,NW,316,5.5,14.2,94,0.00,,,0.00,WUHU216PEETBRO,2013-01-14 11:58:00,
2013-01-14 07:03:00,23.3,21.8,30.26,North,4,5.7,12.6,94,0.00,,,0.00,WUHU216PEETBRO,2013-01-14 12:03:00,
2013-01-14 07:08:00,23.0,21.5,30.26,North,4,7.0,10.4,94,0.00,,,0.00,WUHU216PEETBRO,2013-01-14 12:08:00,
2013-01-14 07:13:00,23.0,21.8,30.26,NNE,15,0.0,10.4,95,0.00,,,0.00,WUHU216PEETBRO,2013-01-14 12:13:00,
2013-01-14 07:18:00,22.8,21.3,30.26,NW,310,11.2,14.9,94,0.00,,,0.00,WUHU216PEETBRO,2013-01-14 12:18:00,
2013-01-14 07:23:00,22.9,21.5,30.27,WNW,293,7.6,14.9,95,0.00,,,0.00,WUHU216PEETBRO,2013-01-14 12:23:00,
2013-01-14 07:28:00,22.6,21.2,30.26,NW,314,6.6,11.1,95,0.00,,,0.00,WUHU216PEETBRO,2013-01-14 12:28:00,
2013-01-14 07:33:00,22.7,21.4,30.26,NW,304,0.0,11.1,95,0.00,,,0.00,WUHU216PEETBRO,2013-01-14 12:33:00,
2013-01-14 07:38:00,22.6,21.3,30.26,North,359,5.8,12.1,95,0.00,,,0.00,WUHU216PEETBRO,2013-01-14 12:38:00,
2013-01-14 07:43:00,22.7,21.6,30.27,WNW,292,6.0,12.1,96,0.00,,,0.00,WUHU216PEETBRO,2013-01-14 12:43:00,
2013-01-14 07:48:00,22.5,21.0,30.27,NW,309,7.1,14.5,94,0.00,,,0.00,WUHU216PEETBRO,2013-01-14 12:48:00,
2013-01-14 07:53:00,22.6,21.3,30.27,NE,40,0.0,14.5,95,0.00,,,0.00,WUHU216PEETBRO,2013-01-14 12:53:00,
2013-01-14 07:58:00,22.6,21.3,30.28,NW,311,5.9,9.7,95,0.00,,,0.00,WUHU216PEETBRO,2013-01-14 12:58:00,
2013-01-14 08:03:00,22.7,21.6,30.28,WNW,292,0.0,7.8,96,0.00,,,0.00,WUHU216PEETBRO,2013-01-14 13:03:00,
2013-01-14 08:08:00,22.6,21.2,30.29,WNW,283,4.3,7.8,94,0.00,,,0.00,WUHU216PEETBRO,2013-01-14 13:08:00,
2013-01-14 08:13:00,22.5,21.0,30.29,West,269,5.7,9.5,94,0.00,,,0.00,WUHU216PEETBRO,2013-01-14 13:13:00,
2013-01-14 08:18:00,22.5,21.1,30.29,NNE,28,6.3,12.9,94,0.00,,,0.00,WUHU216PEETBRO,2013-01-14 13:18:00,
2013-01-14 08:23:00,22.5,21.1,30.29,NNW,327,0.0,17.3,94,0.00,,,0.00,WUHU216PEETBRO,2013-01-14 13:23:00,
2013-01-14 08:28:00,22.5,20.8,30.30,SW,232,3.4,17.3,93,0.00,,,0.00,WUHU216PEETBRO,2013-01-14 13:28:00,
2013-01-14 08:33:00,22.4,20.6,30.30,North,7,2.9,11.4,93,0.00,,,0.00,WUHU216PEETBRO,2013-01-14 13:33:00,
2013-01-14 08:38:00,22.5,20.8,30.30,NNE,29,3.4,11.4,93,0.00,,,0.00,WUHU216PEETBRO,2013-01-14 13:38:00,
2013-01-14 08:43:00,22.5,20.7,30.31,WNW,297,5.1,11.7,93,0.00,,,0.00,WUHU216PEETBRO,2013-01-14 13:43:00,
2013-01-14 08:48:00,22.4,20.5,30.31,ENE,60,3.4,11.7,93,0.00,,,0.00,WUHU216PEETBRO,2013-01-14 13:48:00,
2013-01-14 08:53:00,22.5,20.6,30.32,WNW,290,0.0,11.1,92,0.00,,,0.00,WUHU216PEETBRO,2013-01-14 13:53:00,
2013-01-14 08:58:00,22.2,19.9,30.32,West,273,3.4,11.2,91,0.00,,,0.00,WUHU216PEETBRO,2013-01-14 13:58:00,
2013-01-14 09:03:00,22.1,20.0,30.32,West,276,6.8,13.1,92,0.00,,,0.00,WUHU216PEETBRO,2013-01-14 14:03:00,
2013-01-14 09:08:00,22.1,20.0,30.32,West,263,7.3,13.1,92,0.00,,,0.00,WUHU216PEETBRO,2013-01-14 14:08:00,
2013-01-14 09:13:00,22.4,20.6,30.32,NW,307,0.0,12.6,93,0.00,,,0.00,WUHU216PEETBRO,2013-01-14 14:13:00,
2013-01-14 09:18:00,22.5,20.8,30.32,WSW,247,5.3,12.6,93,0.00,,,0.00,WUHU216PEETBRO,2013-01-14 14:18:00,
2013-01-14 09:23:00,22.7,20.9,30.32,North,1,0.0,9.2,93,0.00,,,0.00,WUHU216PEETBRO,2013-01-14 14:23:00,
2013-01-14 09:28:00,22.6,20.7,30.32,NNE,23,4.5,10.7,93,0.00,,,0.00,WUHU216PEETBRO,2013-01-14 14:28:00,
2013-01-14 09:33:00,22.8,21.1,30.32,WNW,296,3.4,10.7,93,0.00,,,0.00,WUHU216PEETBRO,2013-01-14 14:33:00,
2013-01-14 09:38:00,22.8,21.1,30.32,SSW,210,1.1,8.3,93,0.00,,,0.00,WUHU216PEETBRO,2013-01-14 14:38:00,
2013-01-14 09:43:00,22.5,20.5,30.33,West,271,6.8,11.2,92,0.00,,,0.00,WUHU216PEETBRO,2013-01-14 14:43:00,
2013-01-14 09:48:00,22.7,20.9,30.33,North,0,3.4,11.2,93,0.00,,,0.00,WUHU216PEETBRO,2013-01-14 14:48:00,
2013-01-14 09:53:00,22.8,21.0,30.34,WNW,282,5.0,9.2,93,0.00,,,0.00,WUHU216PEETBRO,2013-01-14 14:53:00,
2013-01-14 09:58:00,22.7,21.0,30.34,WNW,287,4.7,9.9,93,0.00,,,0.00,WUHU216PEETBRO,2013-01-14 14:58:00,
2013-01-14 10:03:00,22.9,21.3,30.34,West,272,8.2,9.9,94,0.00,,,0.00,WUHU216PEETBRO,2013-01-14 15:03:00,
2013-01-14 10:08:00,22.8,20.4,30.34,North,359,0.0,10.1,91,0.00,,,0.00,WUHU216PEETBRO,2013-01-14 15:08:00,
2013-01-14 10:13:00,22.7,20.1,30.35,WNW,286,5.0,10.1,90,0.00,,,0.00,WUHU216PEETBRO,2013-01-14 15:13:00,
2013-01-14 10:18:00,22.4,19.2,30.35,WNW,290,3.0,10.4,87,0.00,,,0.00,WUHU216PEETBRO,2013-01-14 15:18:00,
2013-01-14 10:23:00,22.7,19.0,30.35,North,357,2.0,10.4,86,0.00,,,0.00,WUHU216PEETBRO,2013-01-14 15:23:00,
2013-01-14 10:28:00,23.3,19.5,30.35,NW,309,5.0,9.3,85,0.00,,,0.00,WUHU216PEETBRO,2013-01-14 15:28:00,
2013-01-14 10:33:00,23.6,19.5,30.35,North,359,4.6,8.6,84,0.00,,,0.00,WUHU216PEETBRO,2013-01-14 15:33:00,
2013-01-14 10:38:00,23.2,19.1,30.36,West,273,4.9,11.3,84,0.00,,,0.00,WUHU216PEETBRO,2013-01-14 15:38:00,
2013-01-14 10:43:00,23.2,19.3,30.35,North,7,2.7,11.3,85,0.00,,,0.00,WUHU216PEETBRO,2013-01-14 15:43:00,
2013-01-14 10:48:00,23.3,19.5,30.36,West,280,3.2,10.2,85,0.00,,,0.00,WUHU216PEETBRO,2013-01-14 15:48:00,
2013-01-14 10:53:00,23.1,18.5,30.36,WNW,286,5.2,9.8,82,0.00,,,0.00,WUHU216PEETBRO,2013-01-14 15:53:00,
2013-01-14 10:58:00,23.1,18.9,30.36,WNW,282,3.4,9.8,84,0.00,,,0.00,WUHU216PEETBRO,2013-01-14 15:58:00,
2013-01-14 11:03:00,23.4,19.0,30.36,North,2,4.2,8.7,83,0.00,,,0.00,WUHU216PEETBRO,2013-01-14 16:03:00,
2013-01-14 11:08:00,24.0,19.1,30.36,NNW,347,5.1,8.7,81,0.00,,,0.00,WUHU216PEETBRO,2013-01-14 16:08:00,
2013-01-14 11:13:00,24.4,19.0,30.36,WNW,295,5.5,8.5,80,0.00,,,0.00,WUHU216PEETBRO,2013-01-14 16:13:00,
2013-01-14 11:18:00,24.9,19.9,30.36,West,275,3.4,8.5,81,0.00,,,0.00,WUHU216PEETBRO,2013-01-14 16:18:00,
2013-01-14 11:23:00,25.0,19.0,30.36,NW,309,4.3,8.5,78,0.00,,,0.00,WUHU216PEETBRO,2013-01-14 16:23:00,
2013-01-14 11:28:00,24.9,19.0,30.36,WNW,282,4.6,8.5,78,0.00,,,0.00,WUHU216PEETBRO,2013-01-14 16:28:00,
2013-01-14 11:33:00,24.6,19.2,30.35,North,9,2.9,9.9,80,0.00,,,0.00,WUHU216PEETBRO,2013-01-14 16:33:00,
2013-01-14 11:38:00,24.6,19.0,30.35,NW,317,0.0,9.9,79,0.00,,,0.00,WUHU216PEETBRO,2013-01-14 16:38:00,
2013-01-14 11:43:00,25.0,19.6,30.35,WNW,292,4.7,8.0,80,0.00,,,0.00,WUHU216PEETBRO,2013-01-14 16:43:00,
2013-01-14 11:48:00,25.0,19.4,30.35,NNW,347,0.0,8.4,79,0.00,,,0.00,WUHU216PEETBRO,2013-01-14 16:48:00,
2013-01-14 11:53:00,25.1,19.3,30.34,West,271,4.3,8.4,78,0.00,,,0.00,WUHU216PEETBRO,2013-01-14 16:53:00,
2013-01-14 11:58:00,24.7,19.1,30.34,WNW,300,4.5,8.7,79,0.00,,,0.00,WUHU216PEETBRO,2013-01-14 16:58:00,
2013-01-14 12:03:00,25.2,19.6,30.34,WNW,289,0.0,10.1,79,0.00,,,0.00,WUHU216PEETBRO,2013-01-14 17:03:00,
2013-01-14 12:08:00,25.4,19.6,30.34,WNW,287,0.0,10.1,78,0.00,,,0.00,WUHU216PEETBRO,2013-01-14 17:08:00,
2013-01-14 12:13:00,25.2,19.3,30.33,NNW,340,3.1,11.0,78,0.00,,,0.00,WUHU216PEETBRO,2013-01-14 17:13:00,
2013-01-14 12:18:00,25.4,19.5,30.33,WSW,258,0.0,11.0,78,0.00,,,0.00,WUHU216PEETBRO,2013-01-14 17:18:00,
2013-01-14 12:23:00,25.2,18.9,30.33,WNW,283,4.2,8.5,77,0.00,,,0.00,WUHU216PEETBRO,2013-01-14 17:23:00,
2013-01-14 12:28:00,26.0,20.0,30.32,SW,227,4.3,8.5,78,0.00,,,0.00,WUHU216PEETBRO,2013-01-14 17:28:00,
2013-01-14 12:33:00,25.9,19.9,30.32,West,276,3.2,9.1,78,0.00,,,0.00,WUHU216PEETBRO,2013-01-14 17:33:00,
2013-01-14 12:38:00,26.0,20.6,30.31,ENE,76,0.0,9.8,80,0.00,,,0.00,WUHU216PEETBRO,2013-01-14 17:38:00,
2013-01-14 12:43:00,26.1,19.8,30.31,NNE,18,4.8,9.8,77,0.00,,,0.00,WUHU216PEETBRO,2013-01-14 17:43:00,
2013-01-14 12:48:00,25.8,18.5,30.30,NNE,29,4.2,8.6,74,0.00,,,0.00,WUHU216PEETBRO,2013-01-14 17:48:00,
2013-01-14 12:53:00,25.3,19.3,30.30,NNE,16,4.9,8.6,78,0.00,,,0.00,WUHU216PEETBRO,2013-01-14 17:53:00,
2013-01-14 12:58:00,25.2,19.3,30.31,NNE,28,6.0,8.0,78,0.00,,,0.00,WUHU216PEETBRO,2013-01-14 17:58:00,
2013-01-14 13:03:00,25.4,19.6,30.32,WNW,290,2.1,7.0,78,0.00,,,0.00,WUHU216PEETBRO,2013-01-14 18:03:00,
2013-01-14 13:08:00,25.5,19.4,30.32,North,11,0.0,8.1,77,0.00,,,0.00,WUHU216PEETBRO,2013-01-14 18:08:00,
2013-01-14 13:13:00,25.4,19.4,30.32,West,268,2.4,8.1,78,0.00,,,0.00,WUHU216PEETBRO,2013-01-14 18:13:00,
2013-01-14 13:18:00,25.7,19.8,30.31,West,276,4.2,6.8,78,0.00,,,0.00,WUHU216PEETBRO,2013-01-14 18:18:00,
2013-01-14 13:23:00,26.3,20.7,30.32,North,9,8.2,8.4,79,0.00,,,0.00,WUHU216PEETBRO,2013-01-14 18:23:00,
2013-01-14 13:28:00,26.8,20.0,30.32,WNW,286,0.0,8.4,75,0.00,,,0.00,WUHU216PEETBRO,2013-01-14 18:28:00,
2013-01-14 13:33:00,26.2,20.6,30.31,WNW,289,2.2,8.2,79,0.00,,,0.00,WUHU216PEETBRO,2013-01-14 18:33:00,
2013-01-14 13:38:00,26.7,21.7,30.31,NNE,18,0.0,7.5,81,0.00,,,0.00,WUHU216PEETBRO,2013-01-14 18:38:00,
2013-01-14 13:43:00,27.1,20.7,30.31,NW,310,0.0,7.3,76,0.00,,,0.00,WUHU216PEETBRO,2013-01-14 18:43:00,
2013-01-14 13:48:00,27.1,19.4,30.31,NNE,21,2.9,8.9,72,0.00,,,0.00,WUHU216PEETBRO,2013-01-14 18:48:00,
2013-01-14 13:53:00,26.9,20.9,30.31,ENE,60,3.2,8.9,78,0.00,,,0.00,WUHU216PEETBRO,2013-01-14 18:53:00,
2013-01-14 13:58:00,27.3,21.4,30.32,NW,314,4.5,7.6,78,0.00,,,0.00,WUHU216PEETBRO,2013-01-14 18:58:00,
2013-01-14 14:03:00,27.3,21.0,30.32,WNW,303,1.4,8.0,77,0.00,,,0.00,WUHU216PEETBRO,2013-01-14 19:03:00,
2013-01-14 14:08:00,27.5,22.3,30.32,WSW,245,4.8,8.0,81,0.00,,,0.00,WUHU216PEETBRO,2013-01-14 19:08:00,
2013-01-14 14:13:00,27.5,21.5,30.32,West,262,0.0,6.3,78,0.00,,,0.00,WUHU216PEETBRO,2013-01-14 19:13:00,
2013-01-14 14:18:00,27.3,21.2,30.33,West,259,0.0,6.3,77,0.00,,,0.00,WUHU216PEETBRO,2013-01-14 19:18:00,
2013-01-14 14:23:00,27.3,20.5,30.33,West,271,0.0,7.1,75,0.00,,,0.00,WUHU216PEETBRO,2013-01-14 19:23:00,
2013-01-14 14:28:00,26.9,21.2,30.34,West,275,0.0,7.1,79,0.00,,,0.00,WUHU216PEETBRO,2013-01-14 19:28:00,
2013-01-14 14:33:00,27.0,21.9,30.34,WNW,282,3.3,4.3,81,0.00,,,0.00,WUHU216PEETBRO,2013-01-14 19:33:00,
2013-01-14 14:38:00,27.3,21.3,30.34,North,359,1.7,4.3,78,0.00,,,0.00,WUHU216PEETBRO,2013-01-14 19:38:00,
2013-01-14 14:43:00,26.9,22.7,30.34,North,11,0.0,7.2,84,0.00,,,0.00,WUHU216PEETBRO,2013-01-14 19:43:00,
2013-01-14 14:48:00,26.5,21.4,30.35,North,355,0.0,8.0,81,0.00,,,0.00,WUHU216PEETBRO,2013-01-14 19:48:00,
2013-01-14 14:53:00,25.9,20.9,30.35,West,276,0.0,8.0,81,0.00,,,0.00,WUHU216PEETBRO,2013-01-14 19:53:00,
2013-01-14 14:58:00,25.7,20.7,30.35,North,359,0.0,5.6,81,0.00,,,0.00,WUHU216PEETBRO,2013-01-14 19:58:00,
2013-01-14 15:03:00,25.4,20.7,30.35,West,275,2.8,5.5,82,0.00,,,0.00,WUHU216PEETBRO,2013-01-14 20:03:00,
2013-01-14 15:08:00,26.0,21.4,30.35,NW,324,0.0,5.5,83,0.00,,,0.00,WUHU216PEETBRO,2013-01-14 20:08:00,
2013-01-14 15:13:00,25.9,20.9,30.35,NW,309,0.0,7.0,81,0.00,,,0.00,WUHU216PEETBRO,2013-01-14 20:13:00,
2013-01-14 15:18:00,26.0,21.1,30.35,West,280,0.0,7.0,81,0.00,,,0.00,WUHU216PEETBRO,2013-01-14 20:18:00,
2013-01-14 15:23:00,26.1,21.4,30.35,NW,314,0.0,5.2,82,0.00,,,0.00,WUHU216PEETBRO,2013-01-14 20:23:00,
2013-01-14 15:28:00,26.0,21.1,30.36,WNW,299,0.0,6.3,81,0.00,,,0.00,WUHU216PEETBRO,2013-01-14 20:28:00,
2013-01-14 15:33:00,25.9,21.2,30.36,WNW,299,0.0,6.3,82,0.00,,,0.00,WUHU216PEETBRO,2013-01-14 20:33:00,
2013-01-14 15:38:00,25.9,21.0,30.36,WNW,299,0.0,0.0,82,0.00,,,0.00,WUHU216PEETBRO,2013-01-14 20:38:00,
2013-01-14 15:43:00,25.6,21.2,30.36,WNW,299,0.0,0.0,83,0.00,,,0.00,WUHU216PEETBRO,2013-01-14 20:43:00,
2013-01-14 15:48:00,25.6,20.8,30.37,WNW,283,0.0,5.1,82,0.00,,,0.00,WUHU216PEETBRO,2013-01-14 20:48:00,
2013-01-14 15:53:00,25.7,21.1,30.37,WNW,286,0.0,5.1,82,0.00,,,0.00,WUHU216PEETBRO,2013-01-14 20:53:00,
2013-01-14 15:58:00,25.6,21.1,30.37,WNW,286,0.0,5.1,83,0.00,,,0.00,WUHU216PEETBRO,2013-01-14 20:58:00,
2013-01-14 16:03:00,25.4,20.3,30.37,WNW,286,4.3,6.3,81,0.00,,,0.00,WUHU216PEETBRO,2013-01-14 21:03:00,
2013-01-14 16:08:00,25.3,20.7,30.37,WNW,293,0.0,6.3,82,0.00,,,0.00,WUHU216PEETBRO,2013-01-14 21:08:00,
2013-01-14 16:13:00,25.3,20.7,30.37,WNW,299,0.0,6.2,83,0.00,,,0.00,WUHU216PEETBRO,2013-01-14 21:13:00,
2013-01-14 16:18:00,25.1,20.6,30.37,West,271,5.7,5.7,83,0.00,,,0.00,WUHU216PEETBRO,2013-01-14 21:18:00,
2013-01-14 16:23:00,25.3,20.6,30.37,West,262,0.0,5.7,82,0.00,,,0.00,WUHU216PEETBRO,2013-01-14 21:23:00,
2013-01-14 16:28:00,25.2,20.4,30.37,SW,224,2.6,5.7,82,0.00,,,0.00,WUHU216PEETBRO,2013-01-14 21:28:00,
2013-01-14 16:33:00,25.2,20.8,30.39,NW,306,0.0,5.2,83,0.00,,,0.00,WUHU216PEETBRO,2013-01-14 21:33:00,
2013-01-14 16:38:00,25.1,20.4,30.40,WSW,248,2.8,4.7,82,0.00,,,0.00,WUHU216PEETBRO,2013-01-14 21:38:00,
2013-01-14 16:43:00,25.2,20.6,30.39,NW,317,0.0,4.7,82,0.00,,,0.00,WUHU216PEETBRO,2013-01-14 21:43:00,
2013-01-14 16:48:00,24.8,20.3,30.38,West,265,2.4,5.3,83,0.00,,,0.00,WUHU216PEETBRO,2013-01-14 21:48:00,
2013-01-14 16:53:00,24.9,20.6,30.38,WNW,300,0.0,5.3,84,0.00,,,0.00,WUHU216PEETBRO,2013-01-14 21:53:00,
2013-01-14 16:58:00,24.8,20.6,30.39,NW,304,0.0,5.5,84,0.00,,,0.00,WUHU216PEETBRO,2013-01-14 21:58:00,
2013-01-14 17:03:00,24.7,20.4,30.39,West,272,2.5,5.7,84,0.00,,,0.00,WUHU216PEETBRO,2013-01-14 22:03:00,
2013-01-14 17:08:00,24.7,20.4,30.40,NW,311,0.0,5.7,84,0.00,,,0.00,WUHU216PEETBRO,2013-01-14 22:08:00,
2013-01-14 17:13:00,24.6,20.4,30.40,WNW,285,5.8,6.0,84,0.00,,,0.00,WUHU216PEETBRO,2013-01-14 22:13:00,
2013-01-14 17:18:00,24.6,20.6,30.41,WNW,292,0.0,6.1,85,0.00,,,0.00,WUHU216PEETBRO,2013-01-14 22:18:00,
2013-01-14 17:23:00,24.6,20.8,30.41,WNW,292,0.0,6.9,85,0.00,,,0.00,WUHU216PEETBRO,2013-01-14 22:23:00,
2013-01-14 17:28:00,24.5,20.5,30.40,WNW,290,4.2,6.9,85,0.00,,,0.00,WUHU216PEETBRO,2013-01-14 22:28:00,
2013-01-14 17:33:00,24.4,20.8,30.41,West,275,3.2,6.9,86,0.00,,,0.00,WUHU216PEETBRO,2013-01-14 22:33:00,
2013-01-14 17:38:00,24.4,20.8,30.40,North,352,0.0,5.2,86,0.00,,,0.00,WUHU216PEETBRO,2013-01-14 22:38:00,
2013-01-14 17:43:00,24.4,20.7,30.39,NW,323,0.0,5.2,86,0.00,,,0.00,WUHU216PEETBRO,2013-01-14 22:43:00,
2013-01-14 17:48:00,24.3,20.7,30.40,NW,323,0.0,4.3,86,0.00,,,0.00,WUHU216PEETBRO,2013-01-14 22:48:00,
2013-01-14 17:53:00,24.2,20.4,30.40,West,280,0.0,6.2,85,0.00,,,0.00,WUHU216PEETBRO,2013-01-14 22:53:00,
2013-01-14 17:58:00,24.2,20.6,30.40,West,280,0.0,6.2,86,0.00,,,0.00,WUHU216PEETBRO,2013-01-14 22:58:00,
2013-01-14 18:03:00,24.1,20.4,30.40,West,280,0.0,2.6,86,0.00,,,0.00,WUHU216PEETBRO,2013-01-14 23:03:00,
2013-01-14 18:08:00,24.1,20.3,30.40,WNW,297,3.4,3.5,85,0.00,,,0.00,WUHU216PEETBRO,2013-01-14 23:08:00,
2013-01-14 18:13:00,24.0,20.1,30.40,NW,310,0.0,5.0,85,0.00,,,0.00,WUHU216PEETBRO,2013-01-14 23:13:00,
2013-01-14 18:18:00,24.0,20.3,30.40,WSW,245,0.0,5.0,86,0.00,,,0.00,WUHU216PEETBRO,2013-01-14 23:18:00,
2013-01-14 18:23:00,23.9,20.2,30.40,NNW,337,0.0,4.8,86,0.00,,,0.00,WUHU216PEETBRO,2013-01-14 23:23:00,
2013-01-14 18:28:00,23.8,20.2,30.40,NW,307,0.0,4.9,86,0.00,,,0.00,WUHU216PEETBRO,2013-01-14 23:28:00,
2013-01-14 18:33:00,23.7,20.2,30.40,North,359,0.0,4.9,86,0.00,,,0.00,WUHU216PEETBRO,2013-01-14 23:33:00,
2013-01-14 18:38:00,23.6,20.4,30.40,WNW,295,0.0,5.2,87,0.00,,,0.00,WUHU216PEETBRO,2013-01-14 23:38:00,
2013-01-14 18:43:00,23.4,20.3,30.39,WNW,295,0.0,5.2,88,0.00,,,0.00,WUHU216PEETBRO,2013-01-14 23:43:00,
2013-01-14 18:48:00,23.3,20.4,30.40,West,269,0.0,4.3,89,0.00,,,0.00,WUHU216PEETBRO,2013-01-14 23:48:00,
2013-01-14 18:53:00,23.1,20.3,30.40,West,269,0.0,4.3,89,0.00,,,0.00,WUHU216PEETBRO,2013-01-14 23:53:00,
2013-01-14 18:58:00,23.0,20.4,30.40,West,269,0.0,0.0,90,0.00,,,0.00,WUHU216PEETBRO,2013-01-14 23:58:00,
2013-01-14 19:03:00,22.8,20.4,30.39,West,269,0.0,0.0,91,0.00,,,0.00,WUHU216PEETBRO,2013-01-15 00:03:00,
2013-01-14 19:08:00,22.7,20.4,30.40,West,269,0.0,0.0,91,0.00,,,0.00,WUHU216PEETBRO,2013-01-15 00:08:00,
2013-01-14 19:13:00,22.6,20.3,30.40,West,269,0.0,0.0,91,0.00,,,0.00,WUHU216PEETBRO,2013-01-15 00:13:00,
2013-01-14 19:18:00,22.5,20.3,30.40,NNW,335,0.0,5.3,91,0.00,,,0.00,WUHU216PEETBRO,2013-01-15 00:18:00,
2013-01-14 19:23:00,22.4,20.2,30.40,NNW,335,0.0,5.3,91,0.00,,,0.00,WUHU216PEETBRO,2013-01-15 00:23:00,
2013-01-14 19:28:00,22.2,20.0,30.40,NNW,335,0.0,0.0,91,0.00,,,0.00,WUHU216PEETBRO,2013-01-15 00:28:00,
2013-01-14 19:33:00,22.0,20.0,30.40,NNW,335,0.0,0.0,92,0.00,,,0.00,WUHU216PEETBRO,2013-01-15 00:33:00,
2013-01-14 19:38:00,21.9,19.9,30.39,NNW,335,0.0,0.0,92,0.00,,,0.00,WUHU216PEETBRO,2013-01-15 00:38:00,
2013-01-14 19:43:00,21.7,19.8,30.39,NNW,335,0.0,0.0,93,0.00,,,0.00,WUHU216PEETBRO,2013-01-15 00:43:00,
2013-01-14 19:48:00,21.5,19.7,30.39,NNW,335,0.0,0.0,93,0.00,,,0.00,WUHU216PEETBRO,2013-01-15 00:48:00,
2013-01-14 19:53:00,21.3,19.6,30.38,NNW,335,0.0,0.0,93,0.00,,,0.00,WUHU216PEETBRO,2013-01-15 00:53:00,
2013-01-14 19:58:00,21.1,19.6,30.38,NNW,335,0.0,0.0,94,0.00,,,0.00,WUHU216PEETBRO,2013-01-15 00:58:00,
2013-01-14 20:03:00,20.9,19.5,30.38,NNW,335,0.0,0.0,95,0.00,,,0.00,WUHU216PEETBRO,2013-01-15 01:03:00,
2013-01-14 20:08:00,20.7,19.4,30.38,NNW,335,0.0,0.0,95,0.00,,,0.00,WUHU216PEETBRO,2013-01-15 01:08:00,
2013-01-14 20:13:00,20.6,19.4,30.37,NNW,335,0.0,0.0,95,0.00,,,0.00,WUHU216PEETBRO,2013-01-15 01:13:00,
2013-01-14 20:18:00,20.5,19.4,30.38,NNW,335,0.0,0.0,96,0.00,,,0.00,WUHU216PEETBRO,2013-01-15 01:18:00,
2013-01-14 20:23:00,20.4,19.3,30.37,NNW,335,0.0,0.0,96,0.00,,,0.00,WUHU216PEETBRO,2013-01-15 01:23:00,
2013-01-14 20:28:00,20.3,19.3,30.37,NNW,335,0.0,0.0,96,0.00,,,0.00,WUHU216PEETBRO,2013-01-15 01:28:00,
2013-01-14 20:33:00,20.1,19.1,30.38,NNW,335,0.0,0.0,96,0.00,,,0.00,WUHU216PEETBRO,2013-01-15 01:33:00,
2013-01-14 20:38:00,20.0,19.1,30.37,NNW,335,0.0,0.0,97,0.00,,,0.00,WUHU216PEETBRO,2013-01-15 01:38:00,
2013-01-14 20:43:00,19.8,19.2,30.37,NNW,335,0.0,0.0,97,0.00,,,0.00,WUHU216PEETBRO,2013-01-15 01:43:00,
2013-01-14 20:48:00,19.7,19.0,30.37,NNW,335,0.0,0.0,97,0.00,,,0.00,WUHU216PEETBRO,2013-01-15 01:48:00,
2013-01-14 20:53:00,19.7,19.2,30.37,NNW,335,0.0,0.0,98,0.00,,,0.00,WUHU216PEETBRO,2013-01-15 01:53:00,
2013-01-14 20:58:00,19.6,19.1,30.37,NNW,335,0.0,0.0,98,0.00,,,0.00,WUHU216PEETBRO,2013-01-15 01:58:00,
2013-01-14 21:03:00,19.5,19.0,30.37,NNW,335,0.0,0.0,98,0.00,,,0.00,WUHU216PEETBRO,2013-01-15 02:03:00,
2013-01-14 21:08:00,19.4,18.9,30.37,NNW,335,0.0,0.0,98,0.00,,,0.00,WUHU216PEETBRO,2013-01-15 02:08:00,
2013-01-14 21:13:00,19.2,18.8,30.37,NNW,335,0.0,0.0,98,0.00,,,0.00,WUHU216PEETBRO,2013-01-15 02:13:00,
2013-01-14 21:18:00,19.1,18.8,30.37,NNW,335,0.0,0.0,99,0.00,,,0.00,WUHU216PEETBRO,2013-01-15 02:18:00,
2013-01-14 21:23:00,18.9,18.7,30.37,NNW,335,0.0,0.0,99,0.00,,,0.00,WUHU216PEETBRO,2013-01-15 02:23:00,
2013-01-14 21:28:00,18.8,18.7,30.38,NNW,335,0.0,0.0,99,0.00,,,0.00,WUHU216PEETBRO,2013-01-15 02:28:00,
2013-01-14 21:33:00,18.7,18.6,30.38,NNW,335,0.0,0.0,100,0.00,,,0.00,WUHU216PEETBRO,2013-01-15 02:33:00,
2013-01-14 21:38:00,18.6,18.5,30.38,NNW,335,0.0,0.0,100,0.00,,,0.00,WUHU216PEETBRO,2013-01-15 02:38:00,
2013-01-14 21:43:00,18.5,18.5,30.37,NNW,335,0.0,0.0,100,0.00,,,0.00,WUHU216PEETBRO,2013-01-15 02:43:00,
2013-01-14 21:48:00,18.5,18.5,30.37,NNW,335,0.0,0.0,100,0.00,,,0.00,WUHU216PEETBRO,2013-01-15 02:48:00,
2013-01-14 21:53:00,18.4,18.4,30.37,NNW,335,0.0,0.0,100,0.00,,,0.00,WUHU216PEETBRO,2013-01-15 02:53:00,
2013-01-14 21:58:00,18.5,18.5,30.37,NNW,335,0.0,0.0,100,0.00,,,0.00,WUHU216PEETBRO,2013-01-15 02:58:00,
2013-01-14 22:03:00,18.6,18.6,30.37,NNW,335,0.0,0.0,100,0.00,,,0.00,WUHU216PEETBRO,2013-01-15 03:03:00,
2013-01-14 22:08:00,18.5,18.5,30.37,NNW,335,0.0,0.0,100,0.00,,,0.00,WUHU216PEETBRO,2013-01-15 03:08:00,
2013-01-14 22:13:00,18.3,18.3,30.37,NNW,335,0.0,0.0,100,0.00,,,0.00,WUHU216PEETBRO,2013-01-15 03:13:00,
2013-01-14 22:18:00,18.2,18.2,30.37,NNW,335,0.0,0.0,100,0.00,,,0.00,WUHU216PEETBRO,2013-01-15 03:18:00,
2013-01-14 22:23:00,18.1,18.1,30.37,NNW,335,0.0,0.0,100,0.00,,,0.00,WUHU216PEETBRO,2013-01-15 03:23:00,
2013-01-14 22:28:00,18.0,18.0,30.36,NNW,335,0.0,0.0,100,0.00,,,0.00,WUHU216PEETBRO,2013-01-15 03:28:00,
2013-01-14 22:33:00,17.9,17.9,30.36,NNW,335,0.0,0.0,100,0.00,,,0.00,WUHU216PEETBRO,2013-01-15 03:33:00,
2013-01-14 22:38:00,17.7,17.7,30.36,NNW,335,0.0,0.0,100,0.00,,,0.00,WUHU216PEETBRO,2013-01-15 03:38:00,
2013-01-14 22:43:00,17.7,17.7,30.36,NNW,335,0.0,0.0,100,0.00,,,0.00,WUHU216PEETBRO,2013-01-15 03:43:00,
2013-01-14 22:48:00,17.7,17.7,30.36,NNW,335,0.0,0.0,100,0.00,,,0.00,WUHU216PEETBRO,2013-01-15 03:48:00,
2013-01-14 22:53:00,17.6,17.6,30.36,NNW,335,0.0,0.0,100,0.00,,,0.00,WUHU216PEETBRO,2013-01-15 03:53:00,
2013-01-14 22:58:00,17.5,17.5,30.36,NNW,335,0.0,0.0,100,0.00,,,0.00,WUHU216PEETBRO,2013-01-15 03:58:00,
2013-01-14 23:03:00,17.4,17.4,30.36,NNW,335,0.0,0.0,100,0.00,,,0.00,WUHU216PEETBRO,2013-01-15 04:03:00,
2013-01-14 23:08:00,17.3,17.3,30.36,NNW,335,0.0,0.0,100,0.00,,,0.00,WUHU216PEETBRO,2013-01-15 04:08:00,
2013-01-14 23:13:00,17.2,17.2,30.36,NNW,335,0.0,0.0,100,0.00,,,0.00,WUHU216PEETBRO,2013-01-15 04:13:00,
2013-01-14 23:18:00,17.2,17.2,30.36,NNW,335,0.0,0.0,100,0.00,,,0.00,WUHU216PEETBRO,2013-01-15 04:18:00,
2013-01-14 23:23:00,17.6,17.6,30.36,NNW,335,0.0,0.0,100,0.00,,,0.00,WUHU216PEETBRO,2013-01-15 04:23:00,
2013-01-14 23:28:00,17.7,17.7,30.36,NNW,335,0.0,0.0,100,0.00,,,0.00,WUHU216PEETBRO,2013-01-15 04:28:00,
2013-01-14 23:33:00,17.7,17.7,30.36,NNW,335,0.0,0.0,100,0.00,,,0.00,WUHU216PEETBRO,2013-01-15 04:33:00,
2013-01-14 23:38:00,17.6,17.6,30.36,NNW,335,0.0,0.0,100,0.00,,,0.00,WUHU216PEETBRO,2013-01-15 04:38:00,
2013-01-14 23:43:00,17.6,17.6,30.36,NNW,335,0.0,0.0,100,0.00,,,0.00,WUHU216PEETBRO,2013-01-15 04:43:00,
2013-01-14 23:48:00,17.4,17.4,30.37,NNW,335,0.0,0.0,100,0.00,,,0.00,WUHU216PEETBRO,2013-01-15 04:48:00,
2013-01-14 23:53:00,17.4,17.4,30.37,NNW,335,0.0,0.0,100,0.00,,,0.00,WUHU216PEETBRO,2013-01-15 04:53:00,
2013-01-14 23:58:00,17.3,17.3,30.37,NNW,335,0.0,0.0,100,0.00,,,0.00,WUHU216PEETBRO,2013-01-15 04:58:00,